Simultaneous Nadir Overpasses (SNOs) Predictions

Prediction of SNOs between NOAA-19 and TERRA Satellite Orbit:

Table of predicted SNOs for the next 14.0 days since TLE Epoch: 2/8/2020
Index Date (NOAA-19) Time (NOAA-19) Lat,Lon (NOAA-19) SZA (NOAA-19 ) Date (TERRA) Time (TERRA) Lat,Lon (TERRA) SZA (TERRA ) Distance(km) Time Diff (sec)
1 02/08/2020 09:41:36 79.17, 60.66 95.01 02/08/2020 09:41:26 79.16, 60.66 95.00 0.98 10
2 02/10/2020 15:14:57 -79.19, 157.28 85.70 02/10/2020 15:15:13 -79.18, 157.33 85.69 1.10 16
3 02/10/2020 16:05:52 79.04, -34.19 94.25 02/10/2020 16:04:41 79.11, -35.51 94.19 28.92 71
4 02/12/2020 20:48:17 79.21,-106.12 93.59 02/12/2020 20:48:59 79.20,-106.04 93.60 1.99 42
5 02/12/2020 21:39:17 -79.16, 61.53 86.44 02/12/2020 21:38:27 -79.16, 61.40 86.46 2.79 50
6 02/15/2020 02:21:39 -79.21, -9.44 87.16 02/15/2020 02:22:46 -79.21, -9.37 87.13 1.59 67
7 02/15/2020 03:12:37 79.20, 157.97 92.83 02/15/2020 03:12:13 79.17, 158.00 92.80 3.05 24
8 02/17/2020 08:45:59 -79.19,-105.21 87.94 02/17/2020 08:46:00 -79.19,-105.33 87.95 2.39 1
9 02/19/2020 14:19:17 79.20, -8.56 91.30 02/19/2020 14:19:45 79.23, -8.55 91.33 2.57 28
10 02/19/2020 15:10:20 -79.19, 158.74 88.72 02/19/2020 15:09:14 -79.16, 158.69 88.78 3.69 66
11 02/21/2020 19:52:41 -79.22, 87.99 89.49 02/21/2020 19:53:33 -79.21, 87.87 89.50 3.16 52




NCC Satellite Simultaneous Nadir Overpasses (SNOs) Prediction Service
